This is the latest recevied weather packets stored in our database for station/object OK2PAT-12. If no packets are shown the sender has not sent any weather packets the latest 10 day(s).
| Time | Temp. | Humidity | Pressure | Rain* | Wind** | Luminosity | Snow |
|---|---|---|---|---|---|---|---|
| 1777358693 | 7.22° C | 57% | 1024.7 hPa | - | - | - | - |
| 1777358092 | 7.22° C | 57% | 1024.7 hPa | - | - | - | - |
| 1777357492 | 7.22° C | 57% | 1024.6 hPa | - | - | - | - |
| 1777356893 | 7.22° C | 58% | 1024.5 hPa | - | - | - | - |
| 1777356293 | 6.67° C | 58% | 1024.5 hPa | - | - | - | - |
| 1777355692 | 7.22° C | 57% | 1024.5 hPa | - | - | - | - |
| 1777355092 | 6.67° C | 57% | 1024.4 hPa | - | - | - | - |
| 1777354492 | 6.67° C | 58% | 1024.3 hPa | - | - | - | - |
| 1777353893 | 7.22° C | 57% | 1024.2 hPa | - | - | - | - |
| 1777353292 | 7.22° C | 57% | 1023.9 hPa | - | - | - | - |
| 1777352692 | 6.67° C | 57% | 1023.8 hPa | - | - | - | - |
| 1777352092 | 6.11° C | 59% | 1023.7 hPa | - | - | - | - |
| 1777351492 | 5.56° C | 60% | 1023.6 hPa | - | - | - | - |
| 1777350892 | 4.44° C | 62% | 1023.5 hPa | - | - | - | - |
| 1777350292 | 3.89° C | 63% | 1023.3 hPa | - | - | - | - |
| 1777349692 | 3.33° C | 64% | 1023 hPa | - | - | - | - |
| 1777349092 | 3.33° C | 64% | 1022.9 hPa | - | - | - | - |
| 1777348492 | 3.33° C | 65% | 1022.9 hPa | - | - | - | - |
| 1777347893 | 3.89° C | 63% | 1022.9 hPa | - | - | - | - |
| 1777347292 | 3.89° C | 62% | 1022.6 hPa | - | - | - | - |
| 1777346692 | 3.89° C | 62% | 1022.5 hPa | - | - | - | - |
| 1777346092 | 3.89° C | 63% | 1022.5 hPa | - | - | - | - |
| 1777345492 | 4.44° C | 62% | 1022.5 hPa | - | - | - | - |
| 1777344892 | 4.44° C | 61% | 1022.5 hPa | - | - | - | - |
| 1777344292 | 4.44° C | 60% | 1022.5 hPa | - | - | - | - |
* Rain since midnight (hover to see other rain measurements)
** Current wind speed in m/s (hover to see current wind gust speed)